Regional Weather Roundup
Issued by NWS Spokane, WA

Home | Current Version | Previous Version | Text Only | Print | Product List | Glossary On
Versions: 1 2 3 4 5 6 7 8 9 10 11 12 13 14 15 16 17 18 19 20 21 22 23 24 25 26 27 28 29 30 31 32 33 34 35 36 37 38 39 40 41 42 43 44 45 46 47 48 49 50
000
NZUS01 KOTX 111525
RWROTX

Eastern Washington/Northern Idaho Roundup
National Weather Service, Spokane WA
700 AM PST MON DEC 11 2017

Note: "fair" indicated few or no clouds below 12,000 feet with no
significant weather and/or obstructions to visibility.

...Northeast Washington and Northern Idaho Panhandle...

CITY           SKY/WX    TMP DP  RH WIND       PRES   REMARKS
Spokane Intl   CLOUDY    23  23 100 N5        30.58S FOG     WCI  17
Spokane Downto CLOUDY    26  23  88 CALM      30.62S
Coeur d Alene  CLOUDY    25  22  88 E6        30.59S WCI  18
Deer Park      MOCLDY    14  11  87 CALM      30.60S
Sandpoint      CLEAR     18  18 100 CALM      30.63S
Bonners Ferry  PTSUNNY   18  16  93 CALM      30.63F

...Southeast Washington and southern Idaho Panhandle...

CITY           SKY/WX    TMP DP  RH WIND       PRES   REMARKS
Walla Walla    CLOUDY    29  23  78 CALM      30.65R
Pullman/Moscow FOG       21  18  88 E3        30.58S VSB 1/4
Lewiston       CLOUDY    26  25  96 SE3       30.63S
Lowell           N/A     23  20  88 CALM      30.67S
Grangeville    FAIR      18  16  93 CALM      30.52S

...Columbia Basin...

CITY           SKY/WX    TMP DP  RH WIND       PRES   REMARKS
Ephrata        CLOUDY    31  21  66 NW5       30.64S WCI  26
Moses Lake     CLOUDY    30  25  81 E5        30.66S WCI  25
Pasco          CLOUDY    31  26  82 E5        30.71S WCI  26
Richland       CLOUDY    32  29  90 S3        30.70S
Hermiston      CLOUDY    31  27  85 CALM      30.68R
Pendleton      CLOUDY    27  25  92 NW3       30.62R FOG

...East Slopes Cascades...

CITY           SKY/WX    TMP DP  RH WIND       PRES   REMARKS
The Dalles     CLOUDY    33  24  69 SE9       30.70S WCI  25
Yakima         CLOUDY    32  26  78 CALM      30.66S
Ellensburg       N/A    N/A N/A N/A MISG      30.61S
Stampede Pass  FOG       19  17  92 N10G24    30.40S VSB 1/2 WCI   7
Wenatchee      CLOUDY    29  24  82 VRB3      30.65S
Omak           CLOUDY    28  25  88 NW3       30.67R
Sunnyside      CLOUDY    29  25  84 W3        30.68R

...Southern British Columbia...

CITY           SKY/WX    TMP DP  RH WIND       PRES   REMARKS
Penticton      CLOUDY    32  23  69 SW6       30.66S WCI  26
Castlegar      CLOUDY    32  23  69 N8        30.65F WCI  25
Cranbrook      CLOUDY    18  14  86 N5        30.65S WCI  11
Osoyoos          N/A     34  23  64 S3          N/A
Creston          N/A     25  18  74 NE5         N/A  WCI  19

...Western Montana...

CITY           SKY/WX    TMP DP  RH WIND       PRES   REMARKS
Kalispell      CLOUDY    23  20  88 CALM      30.63S
Libby            N/A     23  19  86 CALM      30.64S
Missoula       CLOUDY    17  14  88 CALM      30.64S

...Neighboring Cities...

CITY           SKY/WX    TMP DP  RH WIND       PRES   REMARKS
Seattle        PTCLDY    31  30  96 S6        30.33S WCI  25
Portland       CLEAR     34  25  69 E10       30.40R WCI  26
Boise          CLOUDY    23  20  88 SE6       30.68R WCI  16
Great Falls    CLOUDY    33  15  47 SW16      30.39F WCI  23
Calgary        MOCLDY    25  16  68 SW3       30.35F



USA.gov is the U.S. government's official web portal to all federal, state and local government web resources and services.